Terminal Aerodrome Forecast
Issued by NWS

Home | Current Version | Previous Version | Text Only | Print | Product List | Glossary On
Versions: 1 2 3 4 5 6 7 8 9 10 11 12 13 14 15 16 17 18 19 20
000
FTUS41 KBOX 192110 AAA
TAFHYA
TAF AMD
KHYA 192110Z 1921/2018 01010G20KT P6SM SKC
     FM192300 03010KT P6SM SKC=

USA.gov is the U.S. government's official web portal to all federal, state and local government web resources and services.